Location: ??
(34.9170°N, 135.5016°E)
Time: 02:14:06
(UTC+00:00)

ALOS - Visible Passes

Search period start: 27 February 2021 00:00
Search period end: 09 March 2021 00:00
Orbit: 682 x 685 km, 97.9° (Epoch: 26 February)

Date Brightness Start Highest point End Pass type
(mag) Time Alt. Az. Time Alt. Az. Time Alt. Az.
27 Feb 3.0 19:07:16 10° NNE 19:10:42 47° NE 19:10:42 47° NE visible
27 Feb 4.2 20:47:51 10° NW 20:48:41 10° WNW 20:49:13 10° WNW visible
28 Feb 5.2 18:08:45 10° ENE 18:09:54 13° ENE 18:09:54 13° ENE visible
28 Feb 2.6 19:44:29 10° N 19:48:25 43° NW 19:48:25 43° NW visible
01 Mar 3.8 18:44:19 10° NNE 18:47:36 33° ENE 18:47:36 33° ENE visible
01 Mar 3.6 20:22:33 10° NNW 20:25:44 18° WNW 20:26:07 18° WNW visible
02 Mar 2.2 19:21:05 10° N 19:25:19 72° NNW 19:25:19 72° NNW visible
03 Mar 4.6 18:21:46 10° NE 18:24:30 20° E 18:24:30 20° E visible
03 Mar 2.9 19:58:34 10° N 20:02:41 32° WNW 20:03:00 31° W visible
04 Mar 2.9 18:57:57 10° NNE 19:02:12 53° E 19:02:12 53° E visible
04 Mar 4.0 20:37:16 10° NW 20:39:25 13° WNW 20:40:43 12° W visible
05 Mar 5.3 18:00:17 10° ENE 18:01:23 11° E 18:01:23 11° E visible
05 Mar 2.2 19:35:00 10° N 19:39:34 56° WNW 19:39:54 55° W visible
06 Mar 4.0 18:35:07 10° NE 18:39:05 30° E 18:39:05 30° E visible
06 Mar 3.4 20:12:48 10° NNW 20:16:25 23° WNW 20:17:36 21° W visible
07 Mar 2.2 19:11:41 10° NNE 19:16:22 80° E 19:16:47 72° SSE visible
08 Mar 4.8 18:12:49 10° NE 18:15:50 17° E 18:15:58 17° E visible
08 Mar 2.7 19:49:00 10° N 19:53:21 39° WNW 19:54:29 33° WSW visible
